Regional Weather Roundup
Issued by NWS State College, PA

Home | Current Version | Previous Version | Text Only | Print | Product List | Glossary Off
Versions: 1 2 3 4 5 6 7 8 9 10 11 12 13 14 15 16 17 18 19 20 21 22 23 24 25 26 27 28 29 30 31 32 33 34 35 36 37 38 39 40 41 42 43 44 45 46 47 48 49 50

000
ASUS41 KCTP 251910
RWRCTP

REGIONAL WEATHER ROUNDUP
NATIONAL WEATHER SERVICE STATE COLLEGE PA
300 PM EDT FRI JUL 25 2014

Note: "fair" indicates few or no clouds below 12,000 feet with no
significant weather and/or obstructions to visibility.

* = STATION THAT DOES NOT REPORT PRECIPITATION /E.G. RAIN...SNOW...ETC/
    THUNDER OR FOG.

PAZ002>004-007>009-013>016-020>023-029>032-252000-
WESTERN PENNSYLVANIA

CITY           SKY/WX    TMP DP  RH WIND       PRES   REMARKS
ERIE           MOSUNNY   73  53  49 NW5       30.05F
MEADVILLE      SUNNY     73  49  42 W7        30.07F
FRANKLIN*      MOSUNNY   72  52  49 NW6       30.08S
NEW CASTLE       N/A     76  52  43 CALM      30.06F
BEAVER COUNTY  SUNNY     75  46  35 CALM      30.07F
BUTLER*        SUNNY     73  52  46 W3        30.08S
PITTSBURGH INT MOSUNNY   75  46  35 SW8       30.06S
PITTSBURGH     SUNNY     76  43  30 W6        30.05S
INDIANA*       SUNNY     75  46  35 N8        30.09F
LATROBE        SUNNY     73  55  53 W7        30.06S
WASHINGTON CO* SUNNY     75  52  43 S3        30.07S
$$

PAZ004>006-010>012-017>019-024>028-033>037-041-042-045-046-049>053-252000-
CENTRAL PENNSYLVANIA

CITY           SKY/WX    TMP DP  RH WIND       PRES   REMARKS
BRADFORD       SUNNY     73  46  38 VRB5      30.06F
DUBOIS         SUNNY     73  47  39 MISG      30.06S
CLEARFIELD     SUNNY     75  48  38 VRB3      30.05F
JOHNSTOWN      SUNNY     72  51  47 NW6       30.07S
ALTOONA        SUNNY     76  54  46 S6        30.05F
STATE COLLEGE  SUNNY     73  50  43 CALM      30.05F
WILLIAMSPORT   SUNNY     77  47  34 VRB3      30.00F
SELINSGROVE    SUNNY     78  47  33 CALM      30.01F
FT INDIANTOWN  SUNNY     79  49  34 VRB3      30.01F
CAPITAL CITY   SUNNY     77  38  24 VRB3      30.01F
HARRISBURG     MOSUNNY   80  49  33 W7        30.00F
YORK           SUNNY     77  48  35 CALM      30.01F
$$

PAZ038>040-043-044-047-048-054-055-060>062-067>071-252000-
EASTERN PENNSYLVANIA

CITY           SKY/WX    TMP DP  RH WIND       PRES   REMARKS
SCRANTON       SUNNY     80  47  31 W9        30.02F
MOUNT POCONO   MOSUNNY   75  51  43 NW6       30.05F
ALLENTOWN      SUNNY     80  52  37 CALM      30.01F
QUAKERTOWN*    CLEAR     79  57  47 NW5       30.02F
READING        SUNNY     80  56  43 NW3       30.00F
LANCASTER      SUNNY     77  53  43 NW6       30.02F
COATESVILLE    CLEAR     75  54  46 SW5       30.03F
POTTSTOWN      MOSUNNY   79  55  43 VRB5      30.01F
BLUE BELL      SUNNY     81  54  39 CALM      30.00F
DOYLESTOWN     SUNNY     81  55  40 NW6       30.00F
WILLOW GROVE   NOT AVBL
NORTH PHILA    SUNNY     83  51  33 CALM      30.00F
PHILADELPHIA   MOSUNNY   81  54  39 S6        29.99F
$$


USA.gov is the U.S. government's official web portal to all federal, state and local government web resources and services.